Date_and_time,latitude,longitude,wind_speed,RelWindDirFrom,WindDirFrom,air_pressure,air_temperature,relative_humidity,Temp,platform_speed_wrt_ground,air_pressure_at_mean_sea_level,platform_orientation
2019-03-30 23:40,50.63044,-96.9807533333333,5.3,7.7,140,999.40,-1.4,64,1.81,0.0,1027.65,130.6
2019-03-30 23:50,50.6304416666667,-96.9807666666667,2.9,4.8,160,999.32,-1.0,54,1.83,0.0,1027.55,130.6
2019-03-31 00:00,50.63044,-96.98077,4.9,6.8,165,999.21,-1.0,59,1.84,0.0,1027.43,360.0
2019-03-31 00:10,50.6304416666667,-96.9807716666667,2.4,6.1,160,999.20,-0.9,61,1.84,0.0,1027.43,360.0
2019-03-31 00:20,50.6304433333333,-96.98077,4.9,6.5,161,999.12,-1.5,67,1.85,0.0,1027.39,360.0
2019-03-31 00:30,50.6304366666667,-96.98076,3.4,5.0,175,999.09,-1.7,67,1.86,0.0,1027.38,360.0
2019-03-31 00:40,50.6304383333333,-96.980765,3.0,4.9,155,999.10,-1.9,65,1.87,0.0,1027.43,360.0
2019-03-31 00:50,50.6304433333333,-96.9807666666667,3.5,4.8,169,999.11,-2.2,63,1.87,0.0,1027.46,360.0
2019-03-31 01:00,50.6304416666667,-96.9807633333333,3.0,3.9,164,999.12,-2.5,62,1.88,0.0,1027.49,0.0
2019-03-31 01:10,50.6304433333333,-96.9807666666667,3.2,4.5,151,999.14,-2.8,68,1.88,0.0,1027.56,0.0
2019-03-31 01:20,50.6304416666667,-96.9807666666667,3.6,4.6,162,999.14,-3.2,71,1.88,0.0,1027.58,0.0
2019-03-31 01:30,50.6304683333333,-96.9807883333333,3.6,5.0,172,999.13,-3.3,68,1.88,0.0,1027.56,0.0
2019-03-31 01:40,50.6304383333333,-96.9807733333333,3.5,4.5,175,999.16,-3.2,63,1.88,0.0,1027.57,0.0
2019-03-31 01:50,50.6304366666667,-96.9807666666667,3.6,7.2,84,999.23,-3.1,76,1.88,0.0,1027.63,0.0
2019-03-31 02:00,50.63044,-96.980765,5.2,6.6,106,999.25,-3.8,83,1.87,0.0,1027.69,90.0
2019-03-31 02:10,50.6304516666667,-96.980775,5.7,6.7,133,999.25,-3.8,78,1.87,0.0,1027.71,90.0
2019-03-31 02:20,50.630445,-96.98077,5.1,5.9,123,999.24,-3.8,75,1.86,0.0,1027.71,90.0
2019-03-31 02:30,50.6304483333333,-96.9807733333333,5.0,5.9,119,999.23,-3.9,78,1.85,0.0,1027.72,90.0
2019-03-31 02:40,50.6304466666667,-96.9807716666667,5.7,6.2,129,999.21,-3.8,72,1.84,0.0,1027.71,90.0
2019-03-31 02:50,50.630445,-96.9807683333333,4.0,5.7,128,999.25,-4.0,75,1.84,0.0,1027.78,90.0
2019-03-31 03:00,50.6304466666667,-96.98077,2.7,4.5,142,999.25,-4.4,73,1.85,0.0,1027.82,38.0
2019-03-31 03:10,50.6304216666667,-96.9807816666667,3.0,4.2,122,999.21,-3.9,70,1.86,0.0,1027.77,38.0
2019-03-31 03:20,50.6304366666667,-96.980775,2.5,3.6,104,999.21,-4.2,75,1.86,0.0,1027.79,38.0
2019-03-31 03:30,50.630435,-96.9807683333333,1.3,4.0,116,999.21,-4.7,76,1.86,0.0,1027.82,38.0
2019-03-31 03:40,50.63044,-96.9807683333333,1.8,3.9,123,999.21,-4.6,73,1.85,0.0,1027.80,38.0
2019-03-31 03:50,50.63044,-96.9807683333333,0.4,1.3,70,999.19,-4.7,76,1.86,0.0,1027.83,38.0
2019-03-31 04:00,50.630455,-96.98078,1.9,3.3,171,999.14,-5.4,74,1.86,0.0,1027.81,310.6
2019-03-31 04:10,50.6304366666667,-96.980765,4.0,5.2,141,999.03,-5.1,67,1.86,0.0,1027.68,310.6
2019-03-31 04:20,50.6304383333333,-96.9807633333333,3.2,4.4,153,998.94,-4.8,67,1.87,0.0,1027.57,310.6
2019-03-31 04:30,50.6304416666667,-96.98076,2.7,3.7,163,998.89,-5.0,69,1.87,0.0,1027.54,310.6
2019-03-31 04:40,50.6304433333333,-96.9807633333333,2.7,4.5,147,998.81,-5.0,68,1.87,0.0,1027.47,310.6
2019-03-31 04:50,50.630445,-96.9807683333333,3.0,3.6,120,998.79,-4.6,68,1.88,0.0,1027.44,310.6
2019-03-31 05:00,50.6304433333333,-96.98077,1.6,3.7,96,998.75,-5.0,70,1.88,0.0,1027.39,90.0
2019-03-31 05:10,50.63044,-96.9807716666667,2.2,4.0,154,998.72,-5.7,72,1.88,0.0,1027.41,90.0
2019-03-31 05:20,50.63043,-96.9807866666667,3.2,4.1,187,998.68,-6.0,74,1.88,0.0,1027.42,90.0
2019-03-31 05:30,50.6304433333333,-96.9807816666667,2.1,2.9,181,998.59,-6.0,71,1.88,0.0,1027.33,90.0
2019-03-31 05:40,50.6304483333333,-96.9807733333333,3.4,4.8,172,998.50,-5.9,69,1.88,0.0,1027.23,90.0
2019-03-31 05:50,50.6304483333333,-96.9807683333333,3.6,4.5,164,998.40,-6.0,70,1.89,0.0,1027.17,90.0
2019-03-31 06:00,50.6304483333333,-96.98077,4.5,5.4,171,998.32,-6.0,70,1.89,0.0,1027.07,0.0
2019-03-31 06:10,50.6304466666667,-96.9807716666667,5.2,6.2,175,998.21,-6.0,70,1.89,0.0,1026.95,0.0
2019-03-31 06:20,50.6304466666667,-96.98077,6.3,6.9,178,998.18,-6.1,69,1.88,0.0,1026.93,0.0
2019-03-31 06:30,50.6304466666667,-96.98077,6.2,7.0,181,998.12,-6.2,70,1.87,0.0,1026.87,0.0
2019-03-31 06:40,50.6304516666667,-96.9808033333333,6.7,7.5,180,998.07,-6.1,69,1.87,0.0,1026.79,0.0
2019-03-31 06:50,50.6304516666667,-96.9807833333333,6.2,6.7,179,997.99,-6.1,69,1.87,0.0,1026.73,0.0
2019-03-31 07:00,50.63045,-96.9807733333333,6.3,7.0,178,997.95,-6.1,68,1.87,0.0,1026.72,90.0
2019-03-31 07:10,50.6304483333333,-96.9807683333333,4.8,5.9,181,997.93,-6.1,69,1.87,0.0,1026.73,90.0
2019-03-31 07:20,50.63045,-96.9807683333333,4.5,5.6,191,997.96,-6.2,70,1.87,0.0,1026.76,90.0
2019-03-31 07:30,50.6304483333333,-96.9807683333333,3.9,4.8,199,997.94,-5.9,67,1.87,0.0,1026.72,90.0
2019-03-31 07:40,50.630445,-96.9807683333333,2.9,4.4,194,997.87,-5.6,65,1.88,0.0,1026.63,90.0
2019-03-31 07:50,50.6304433333333,-96.98077,2.4,3.2,209,997.79,-5.7,65,1.88,0.0,1026.56,90.0
2019-03-31 08:00,50.6304366666667,-96.980755,3.2,3.9,213,997.68,-6.0,67,1.87,0.0,1026.46,131.7
2019-03-31 08:10,50.6304666666667,-96.9807733333333,3.2,3.7,211,997.62,-6.2,72,1.88,0.0,1026.41,131.7
2019-03-31 08:20,50.6304466666667,-96.9807716666667,2.2,3.6,209,997.62,-6.2,74,1.88,0.0,1026.42,131.7
2019-03-31 08:30,50.6304416666667,-96.98077,1.4,2.4,215,997.57,-6.4,76,1.88,0.0,1026.38,131.7
2019-03-31 08:40,50.6304366666667,-96.9807666666667,2.5,3.0,216,997.53,-6.5,78,1.88,0.0,1026.34,131.7
2019-03-31 08:50,50.630435,-96.9807633333333,2.5,3.0,226,997.50,-6.4,78,1.88,0.0,1026.30,131.7
2019-03-31 09:00,50.630435,-96.9807633333333,2.1,3.4,227,997.49,-6.4,78,1.88,0.0,1026.29,360.0
2019-03-31 09:10,50.630435,-96.9807633333333,2.1,3.0,215,997.49,-6.8,82,1.88,0.0,1026.32,360.0
2019-03-31 09:20,50.6304366666667,-96.980765,2.1,2.9,212,997.41,-7.1,85,1.88,0.0,1026.24,360.0
2019-03-31 09:30,50.6304383333333,-96.980765,2.3,3.1,224,997.33,-7.0,83,1.88,0.0,1026.14,360.0
2019-03-31 09:40,50.6304516666667,-96.9807666666667,2.7,3.5,231,997.30,-6.7,80,1.88,0.0,1026.09,360.0
2019-03-31 09:50,50.6304466666667,-96.9807616666667,2.6,3.2,237,997.35,-6.6,78,1.88,0.0,1026.16,360.0
2019-03-31 10:00,50.6304433333333,-96.9807683333333,2.5,3.2,244,997.38,-6.4,76,1.87,0.0,1026.18,360.0
2019-03-31 10:10,50.63044,-96.98079,2.0,2.7,252,997.33,-6.3,76,1.87,0.0,1026.13,360.0
2019-03-31 10:20,50.6304416666667,-96.980775,2.0,2.9,244,997.31,-6.4,77,1.87,0.0,1026.12,360.0
2019-03-31 10:30,50.630445,-96.9807733333333,2.4,3.0,245,997.25,-6.4,78,1.87,0.0,1026.07,360.0
2019-03-31 10:40,50.6304433333333,-96.9807683333333,1.6,2.2,240,997.18,-6.5,80,1.86,0.0,1026.00,360.0
2019-03-31 10:50,50.630445,-96.9807716666667,0.9,1.4,223,997.20,-6.9,82,1.85,0.0,1026.04,360.0
2019-03-31 11:00,50.6304383333333,-96.9807566666667,0.5,1.6,149,997.20,-7.0,83,1.83,0.0,1026.06,360.0
2019-03-31 11:10,50.6304466666667,-96.980755,1.1,1.8,104,997.19,-6.7,86,1.82,0.0,1026.06,360.0
2019-03-31 11:20,50.6304466666667,-96.9807566666667,2.3,2.8,112,997.20,-7.0,92,1.81,0.0,1026.08,360.0
2019-03-31 11:30,50.6304466666667,-96.9807616666667,2.8,3.8,115,997.21,-7.2,93,1.81,0.0,1026.08,360.0
2019-03-31 11:40,50.63045,-96.9807633333333,4.3,5.3,116,997.20,-7.4,97,1.82,0.0,1026.08,360.0
2019-03-31 11:50,50.6304533333333,-96.98076,3.9,5.1,122,997.32,-7.6,99,1.82,0.0,1026.20,360.0
2019-03-31 12:00,50.6304533333333,-96.9807616666667,3.4,4.6,135,997.41,-8.1,99,1.81,0.0,1026.31,23.5
2019-03-31 12:10,50.6304316666667,-96.980775,2.2,3.8,154,997.48,-8.3,99,1.80,0.0,1026.40,23.5
2019-03-31 12:20,50.6304433333333,-96.98077,0.8,1.7,153,997.56,-8.2,99,1.79,0.0,1026.48,23.5
2019-03-31 12:30,50.6304483333333,-96.9807666666667,0.9,1.8,164,997.60,-8.0,99,1.79,0.0,1026.52,23.5
2019-03-31 12:40,50.6304483333333,-96.980765,0.5,1.2,145,997.60,-7.7,99,1.79,0.0,1026.52,23.5
2019-03-31 12:50,50.6304483333333,-96.980765,0.3,1.1,147,997.59,-7.3,99,1.79,0.0,1026.49,23.5
2019-03-31 13:00,50.63045,-96.980765,1.3,1.9,152,997.64,-7.6,99,1.79,0.0,1026.54,360.0
2019-03-31 13:10,50.63045,-96.9807633333333,1.4,1.8,144,997.64,-7.2,99,1.79,0.0,1026.53,360.0
2019-03-31 13:20,50.63045,-96.9807633333333,1.4,2.1,149,997.57,-7.1,99,1.78,0.0,1026.47,360.0
2019-03-31 13:30,50.63045,-96.9807633333333,1.6,2.2,137,997.54,-6.9,99,1.75,0.0,1026.44,360.0
2019-03-31 13:40,50.6304483333333,-96.980765,2.7,3.9,142,997.54,-7.1,99,1.73,0.0,1026.46,360.0
2019-03-31 13:50,50.6304483333333,-96.980765,2.5,3.4,140,997.44,-6.9,99,1.73,0.0,1026.38,360.0
2019-03-31 14:00,50.6304483333333,-96.9807633333333,2.1,3.3,129,997.43,-6.3,99,1.73,0.0,1026.35,311.7
2019-03-31 14:10,50.6304466666667,-96.980765,2.7,4.0,125,997.43,-5.7,98,1.74,0.0,1026.31,311.7
2019-03-31 14:20,50.6304466666667,-96.9807666666667,2.3,3.0,108,997.38,-4.9,90,1.75,0.0,1026.20,311.7
2019-03-31 14:30,50.6304466666667,-96.9807666666667,2.0,3.0,119,997.34,-4.7,88,1.74,0.0,1026.14,311.7
2019-03-31 14:40,50.6304466666667,-96.9807666666667,1.8,2.7,106,997.37,-4.2,85,1.70,0.0,1026.11,311.7
2019-03-31 14:50,50.6304466666667,-96.9807683333333,1.0,1.8,70,997.38,-3.5,81,1.69,0.0,1026.10,311.7
2019-03-31 15:00,50.6304466666667,-96.9807683333333,1.2,2.2,67,997.42,-3.3,80,1.69,0.0,1026.11,228.3
2019-03-31 15:10,50.6304466666667,-96.9807683333333,2.4,2.7,67,997.42,-4.1,89,1.69,0.0,1026.15,228.3
2019-03-31 15:20,50.6304466666667,-96.98077,2.6,3.4,96,997.43,-3.5,84,1.69,0.0,1026.11,228.3
2019-03-31 15:30,50.6304466666667,-96.98077,2.2,3.2,96,997.46,-2.0,75,1.69,0.0,1026.08,228.3
2019-03-31 15:40,50.6304466666667,-96.98077,2.1,2.7,96,997.49,-1.0,71,1.71,0.0,1026.04,228.3
2019-03-31 15:50,50.6304466666667,-96.98077,2.6,3.5,105,997.42,-0.7,72,1.73,0.0,1025.92,228.3
2019-03-31 16:00,50.6304466666667,-96.98077,2.9,3.7,104,997.40,-0.9,74,1.74,0.0,1025.88,360.0
2019-03-31 16:10,50.6304416666667,-96.9807783333333,3.2,3.9,111,997.39,-1.4,81,1.75,0.0,1025.85,360.0
2019-03-31 16:20,50.6304466666667,-96.9807716666667,3.9,4.7,111,997.38,-1.4,83,1.76,0.0,1025.83,360.0
2019-03-31 16:30,50.6304466666667,-96.98077,4.0,4.6,111,997.38,-1.2,83,1.76,0.0,1025.80,360.0
2019-03-31 16:40,50.6304466666667,-96.98077,4.0,4.7,110,997.36,-0.9,82,1.77,0.0,1025.72,360.0
2019-03-31 16:50,50.6304183333333,-96.9807516666667,4.0,4.7,106,997.37,-0.3,80,1.76,0.0,1025.69,360.0
2019-03-31 17:00,50.63043,-96.980765,4.5,5.1,118,997.29,-0.4,82,1.75,0.0,1025.65,360.0
2019-03-31 17:10,50.630435,-96.9807683333333,5.0,6.0,116,997.21,-0.5,82,1.74,0.0,1025.55,360.0
2019-03-31 17:20,50.6304383333333,-96.98077,5.9,7.0,108,997.17,-0.1,79,1.73,0.0,1025.40,360.0
2019-03-31 17:30,50.6304383333333,-96.9807683333333,5.9,6.5,103,997.13,0.4,77,1.73,0.0,1025.28,360.0
2019-03-31 17:40,50.63044,-96.9807683333333,5.7,6.8,95,997.09,1.1,71,1.73,0.0,1025.19,360.0
2019-03-31 17:50,50.63044,-96.9807683333333,5.6,6.7,98,997.05,1.5,68,1.73,0.0,1025.14,360.0
2019-03-31 18:00,50.6304416666667,-96.98077,4.8,6.0,89,996.98,1.8,65,1.73,0.0,1025.08,360.0
2019-03-31 18:10,50.6304416666667,-96.9807683333333,5.5,7.0,84,996.90,2.0,63,1.74,0.0,1024.99,360.0
2019-03-31 18:20,50.6304433333333,-96.98077,5.7,7.0,78,996.85,1.6,65,1.74,0.0,1024.94,360.0
2019-03-31 18:30,50.630445,-96.9807733333333,6.6,7.6,73,996.78,1.1,67,1.75,0.0,1024.88,360.0
2019-03-31 18:40,50.630445,-96.9807733333333,5.6,7.2,81,996.73,1.2,66,1.76,0.0,1024.80,360.0
2019-03-31 18:50,50.6304566666667,-96.9807816666667,5.2,6.2,83,996.71,2.1,60,1.76,0.0,1024.74,360.0
2019-03-31 19:00,50.6304333333333,-96.980765,5.0,6.5,82,996.70,2.0,60,1.76,0.0,1024.74,161.1
2019-03-31 19:10,50.6304483333333,-96.980775,4.4,5.1,89,996.68,2.8,55,1.77,0.0,1024.65,161.1
2019-03-31 19:20,50.6304483333333,-96.98077,5.2,7.0,91,996.59,3.1,54,1.78,0.0,1024.52,161.1
2019-03-31 19:30,50.6304466666667,-96.9807683333333,6.0,6.9,99,996.45,2.2,58,1.79,0.0,1024.38,161.1
2019-03-31 19:40,50.630445,-96.9807666666667,5.9,7.0,105,996.38,1.6,60,1.80,0.0,1024.32,161.1
2019-03-31 19:50,50.6304433333333,-96.980765,5.6,6.8,116,996.33,0.9,65,1.81,0.0,1024.30,161.1
2019-03-31 20:00,50.6304483333333,-96.980775,6.1,7.4,124,996.26,0.5,66,1.82,0.0,1024.23,360.0
2019-03-31 20:10,50.6304433333333,-96.9807716666667,6.5,7.8,117,996.24,0.6,65,1.83,0.0,1024.22,360.0
2019-03-31 20:20,50.6304416666667,-96.9807666666667,5.8,6.4,116,996.23,0.5,65,1.84,0.0,1024.24,360.0
2019-03-31 20:30,50.6304433333333,-96.9807716666667,4.5,6.1,123,996.18,0.4,66,1.86,0.0,1024.19,360.0
2019-03-31 20:40,50.6304433333333,-96.98077,5.6,7.0,138,996.11,-0.2,65,1.87,0.0,1024.11,360.0
2019-03-31 20:50,50.6304133333333,-96.9807866666667,5.0,7.7,148,996.15,0.1,66,1.88,0.0,1024.14,360.0
2019-03-31 21:00,50.6304333333333,-96.9807683333333,8.1,9.3,162,995.99,-0.1,60,1.88,0.0,1023.94,142.0
2019-03-31 21:10,50.63044,-96.9807666666667,7.8,9.3,159,995.88,0.3,57,1.90,0.0,1023.79,142.0
2019-03-31 21:20,50.6304416666667,-96.980765,8.4,10.2,153,995.80,0.5,57,1.91,0.0,1023.75,142.0
2019-03-31 21:30,50.6304416666667,-96.9807533333333,10.1,11.7,151,995.69,0.3,57,1.92,0.0,1023.67,142.0
2019-03-31 21:40,50.6304416666667,-96.9807616666667,8.9,10.5,150,995.63,0.4,54,1.92,0.0,1023.64,142.0
2019-03-31 21:50,50.6304416666667,-96.9807633333333,8.6,9.6,152,995.53,0.2,55,1.94,0.0,1023.57,142.0
2019-03-31 22:00,50.63044,-96.9807616666667,8.5,9.9,152,995.45,-0.0,59,1.95,0.0,1023.50,14.5
2019-03-31 22:10,50.6304383333333,-96.9807616666667,9.0,10.5,155,995.44,0.1,57,1.95,0.0,1023.49,14.5
2019-03-31 22:20,50.63044,-96.98076,7.5,9.5,154,995.41,0.2,58,1.96,0.0,1023.45,14.5
2019-03-31 22:30,50.6304416666667,-96.9807616666667,5.0,6.5,151,995.38,0.6,58,1.97,0.0,1023.44,14.5
2019-03-31 22:40,50.6304416666667,-96.9807616666667,5.1,6.9,137,995.31,0.5,65,1.98,0.0,1023.36,14.5
2019-03-31 22:50,50.6304416666667,-96.9807616666667,4.5,7.4,152,995.26,0.7,63,1.99,0.0,1023.30,14.5
2019-03-31 23:00,50.6304416666667,-96.9807616666667,4.4,6.1,167,995.20,0.8,64,1.99,0.0,1023.22,125.3
2019-03-31 23:10,50.6304416666667,-96.98076,4.0,6.4,205,995.15,1.3,57,2.00,0.0,1023.13,125.3
2019-03-31 23:20,50.6304416666667,-96.9807633333333,6.5,8.3,198,995.05,1.9,52,2.01,0.0,1023.00,125.3
2019-03-31 23:30,50.6304433333333,-96.9807633333333,6.0,8.0,190,995.03,1.9,54,2.02,0.0,1022.97,125.3
2019-03-31 23:40,50.6304433333333,-96.9807633333333,4.2,6.5,203,995.05,1.9,54,2.03,0.0,1023.01,125.3
